QPF
0.03 0.03 0.04 0.04 0.04 0.04 0.04 0.04 0.06 0.07 0.06 0.06 0.06 0.06 0.06 0.08 0.12 0.12 0.08 0.07 0.06 0.06 0.07 0.08 0.10 0.12 0.12 0.10 0.09 0.08 0.06 0.03 0.01 0.01 0.00 0.00 0.00 0.00 0.00 0.00 0.00 0.00 0.01
0.03 0.03 0.03 0.04 0.04 0.04 0.04 0.04 0.05 0.07 0.06 0.06 0.06 0.07 0.06 0.05 0.09 0.16 0.12 0.09 0.07 0.06 0.06 0.06 0.07 0.08 0.09 0.07 0.06 0.06 0.06 0.04 0.03 0.02 0.02 0.01 0.00 0.00 0.00 0.00 0.00 0.00 0.01
0.02 0.02 0.02 0.02 0.03 0.04 0.04 0.04 0.04 0.05 0.07 0.08 0.08 0.09 0.09 0.08 0.08 0.15 0.16 0.12 0.08 0.05 0.05 0.05 0.06 0.06 0.06 0.05 0.04 0.04 0.04 0.04 0.04 0.03 0.03 0.02 0.01 0.00 0.00 0.00 0.00 0.01 0.01
0.02 0.02 0.02 0.02 0.02 0.03 0.04 0.04 0.04 0.05 0.08 0.10 0.10 0.08 0.07 0.06 0.05 0.09 0.17 0.17 0.13 0.08 0.06 0.05 0.06 0.05 0.04 0.03 0.02 0.02 0.02 0.04 0.04 0.04 0.03 0.02 0.01 0.01 0.01 0.00 0.00 0.01 0.01
0.02 0.02 0.02 0.02 0.02 0.03 0.03 0.04 0.05 0.05 0.06 0.09 0.12 0.11 0.08 0.06 0.05 0.06 0.11 0.16 0.15 0.11 0.10 0.09 0.08 0.07 0.06 0.03 0.02 0.01 0.02 0.02 0.03 0.04 0.04 0.03 0.03 0.02 0.02 0.02 0.01 0.01 0.01
0.02 0.02 0.02 0.02 0.02 0.02 0.03 0.03 0.04 0.04 0.05 0.07 0.10 0.12 0.10 0.08 0.07 0.05 0.05 0.09 0.14 0.15 0.11 0.10 0.10 0.09 0.07 0.04 0.02 0.02 0.01 0.02 0.03 0.03 0.04 0.04 0.04 0.04 0.04 0.04 0.02 0.02 0.01
0.02 0.02 0.02 0.02 0.02 0.02 0.02 0.02 0.03 0.04 0.05 0.06 0.07 0.08 0.10 0.11 0.10 0.07 0.05 0.05 0.09 0.13 0.13 0.09 0.09 0.10 0.09 0.07 0.04 0.02 0.02 0.02 0.02 0.03 0.04 0.03 0.03 0.02 0.02 0.02 0.02 0.02 0.01
0.01 0.01 0.01 0.02 0.02 0.02 0.02 0.02 0.03 0.03 0.04 0.05 0.05 0.06 0.09 0.11 0.12 0.09 0.07 0.06 0.06 0.08 0.12 0.11 0.08 0.08 0.09 0.08 0.07 0.06 0.04 0.03 0.03 0.03 0.03 0.03 0.02 0.02 0.02 0.02 0.02 0.02 0.01
0.01 0.01 0.02 0.02 0.02 0.02 0.02 0.03 0.03 0.03 0.03 0.04 0.06 0.07 0.08 0.10 0.12 0.12 0.10 0.09 0.08 0.07 0.10 0.12 0.10 0.08 0.09 0.09 0.10 0.10 0.08 0.06 0.04 0.04 0.03 0.03 0.03 0.02 0.02 0.03 0.03 0.03 0.03
0.01 0.01 0.02 0.02 0.03 0.03 0.03 0.03 0.04 0.04 0.03 0.03 0.05 0.07 0.08 0.09 0.12 0.13 0.12 0.11 0.10 0.08 0.08 0.11 0.10 0.09 0.10 0.10 0.09 0.09 0.09 0.07 0.06 0.05 0.04 0.03 0.03 0.03 0.03 0.03 0.03 0.03 0.03
0.02 0.02 0.02 0.02 0.03 0.05 0.05 0.03 0.02 0.04 0.06 0.05 0.04 0.06 0.07 0.08 0.10 0.12 0.12 0.12 0.11 0.08 0.07 0.09 0.10 0.08 0.08 0.10 0.10 0.09 0.08 0.05 0.04 0.03 0.03 0.03 0.03 0.03 0.03 0.03 0.03 0.03 0.02
0.02 0.03 0.02 0.02 0.05 0.07 0.05 0.04 0.03 0.03 0.05 0.08 0.07 0.07 0.07 0.07 0.09 0.10 0.12 0.11 0.11 0.11 0.09 0.08 0.08 0.07 0.07 0.08 0.08 0.08 0.07 0.06 0.04 0.04 0.03 0.03 0.02 0.02 0.02 0.02 0.02 0.02 0.02
0.03 0.03 0.02 0.02 0.04 0.06 0.05 0.05 0.05 0.05 0.04 0.06 0.10 0.12 0.10 0.08 0.08 0.09 0.10 0.10 0.09 0.10 0.10 0.07 0.06 0.06 0.06 0.06 0.06 0.06 0.06 0.05 0.05 0.04 0.04 0.03 0.02 0.02 0.02 0.02 0.02 0.02 0.01
0.05 0.03 0.02 0.02 0.03 0.04 0.05 0.05 0.07 0.07 0.06 0.05 0.06 0.11 0.13 0.10 0.08 0.07 0.08 0.09 0.09 0.08 0.07 0.06 0.05 0.05 0.05 0.05 0.05 0.04 0.04 0.03 0.03 0.03 0.03 0.02 0.01 0.01 0.01 0.02 0.01 0.01 0.01
0.06 0.05 0.03 0.03 0.03 0.04 0.05 0.05 0.07 0.08 0.07 0.05 0.06 0.07 0.10 0.12 0.11 0.10 0.08 0.08 0.08 0.07 0.07 0.06 0.05 0.04 0.04 0.04 0.04 0.04 0.04 0.04 0.03 0.03 0.02 0.01 0.01 0.01 0.01 0.01 0.01 0.01 0.01
0.07 0.07 0.04 0.03 0.03 0.04 0.06 0.06 0.07 0.09 0.09 0.07 0.07 0.07 0.08 0.09 0.10 0.11 0.13 0.10 0.07 0.07 0.07 0.07 0.06 0.04 0.03 0.04 0.04 0.05 0.04 0.04 0.03 0.03 0.02 0.02 0.02 0.01 0.01 0.01 0.01 0.01 0.02
0.06 0.07 0.07 0.05 0.04 0.05 0.07 0.07 0.08 0.09 0.11 0.10 0.09 0.07 0.07 0.07 0.07 0.08 0.09 0.11 0.11 0.10 0.09 0.08 0.08 0.06 0.06 0.06 0.05 0.05 0.06 0.06 0.04 0.03 0.03 0.03 0.03 0.03 0.02 0.02 0.03 0.03 0.03
0.04 0.07 0.09 0.08 0.06 0.05 0.08 0.09 0.08 0.09 0.11 0.13 0.13 0.09 0.07 0.06 0.07 0.07 0.08 0.09 0.10 0.11 0.12 0.11 0.10 0.09 0.08 0.08 0.06 0.06 0.06 0.07 0.07 0.06 0.05 0.04 0.04 0.04 0.03 0.03 0.03 0.03 0.03
0.05 0.08 0.10 0.08 0.07 0.07 0.09 0.10 0.09 0.09 0.10 0.13 0.14 0.11 0.10 0.09 0.08 0.09 0.09 0.10 0.11 0.11 0.11 0.10 0.10 0.09 0.09 0.09 0.08 0.07 0.06 0.06 0.06 0.07 0.07 0.06 0.05 0.05 0.05 0.04 0.03 0.02 0.02
0.05 0.07 0.09 0.06 0.06 0.07 0.09 0.10 0.11 0.10 0.09 0.11 0.13 0.12 0.11 0.11 0.10 0.10 0.10 0.11 0.12 0.14 0.12 0.10 0.09 0.08 0.08 0.08 0.08 0.07 0.05 0.06 0.06 0.06 0.06 0.08 0.07 0.06 0.06 0.05 0.04 0.03 0.02
0.04 0.06 0.07 0.05 0.05 0.06 0.07 0.08 0.10 0.10 0.09 0.09 0.11 0.10 0.10 0.10 0.11 0.11 0.11 0.11 0.12 0.14 0.14 0.13 0.10 0.09 0.08 0.07 0.06 0.06 0.05 0.05 0.06 0.06 0.06 0.06 0.08 0.07 0.07 0.06 0.06 0.06 0.04
0.03 0.04 0.05 0.05 0.04 0.05 0.06 0.07 0.09 0.09 0.08 0.08 0.08 0.08 0.09 0.09 0.09 0.09 0.10 0.11 0.11 0.13 0.13 0.13 0.12 0.10 0.09 0.08 0.06 0.06 0.06 0.06 0.05 0.05 0.04 0.04 0.05 0.06 0.05 0.05 0.05 0.05 0.05
0.02 0.03 0.04 0.04 0.04 0.04 0.05 0.06 0.08 0.08 0.07 0.09 0.09 0.09 0.09 0.10 0.09 0.08 0.08 0.09 0.09 0.10 0.11 0.12 0.12 0.11 0.09 0.08 0.07 0.06 0.06 0.05 0.04 0.04 0.04 0.03 0.03 0.03 0.03 0.03 0.03 0.03 0.02
0.02 0.03 0.03 0.03 0.03 0.03 0.04 0.05 0.07 0.07 0.07 0.08 0.09 0.09 0.08 0.09 0.10 0.09 0.09 0.09 0.09 0.10 0.10 0.10 0.09 0.09 0.09 0.07 0.05 0.04 0.04 0.04 0.04 0.04 0.03 0.03 0.02 0.03 0.03 0.03 0.02 0.01 0.01
0.02 0.02 0.02 0.02 0.03 0.03 0.03 0.04 0.06 0.07 0.07 0.07 0.08 0.08 0.08 0.08 0.08 0.08 0.09 0.09 0.09 0.09 0.08 0.07 0.06 0.05 0.05 0.06 0.05 0.04 0.03 0.03 0.03 0.03 0.03 0.02 0.02 0.02 0.02 0.02 0.02 0.01 0.01
0.01 0.02 0.02 0.02 0.02 0.02 0.03 0.04 0.05 0.05 0.05 0.06 0.07 0.07 0.07 0.07 0.07 0.06 0.07 0.07 0.07 0.06 0.05 0.05 0.04 0.04 0.04 0.04 0.04 0.04 0.03 0.03 0.03 0.02 0.02 0.02 0.02 0.01 0.01 0.01 0.01 0.01 0.01
MSLP
1030.98 1031.16 1031.29 1031.31 1031.20 1030.95 1030.54 1030.03 1029.45 1028.86 1028.34 1027.92 1027.62 1027.44 1027.35 1027.30 1027.25 1027.14 1026.94 1026.66 1026.29 1025.87 1025.42 1024.99 1024.58 1024.21 1023.85 1023.49 1023.09 1022.64 1022.10 1021.49 1020.82 1020.10 1019.36 1018.65 1017.97 1017.36 1016.84 1016.39 1016.03 1015.75 1015.55
1031.82 1032.01 1032.13 1032.14 1032.02 1031.76 1031.37 1030.88 1030.34 1029.81 1029.33 1028.94 1028.67 1028.49 1028.39 1028.32 1028.24 1028.10 1027.88 1027.58 1027.21 1026.79 1026.34 1025.90 1025.47 1025.06 1024.65 1024.23 1023.77 1023.24 1022.63 1021.95 1021.19 1020.38 1019.55 1018.73 1017.94 1017.21 1016.55 1015.99 1015.52 1015.15 1014.87
1032.60 1032.80 1032.90 1032.90 1032.76 1032.50 1032.13 1031.68 1031.19 1030.72 1030.29 1029.94 1029.68 1029.49 1029.36 1029.26 1029.13 1028.96 1028.72 1028.41 1028.04 1027.62 1027.18 1026.74 1026.29 1025.85 1025.40 1024.92 1024.40 1023.82 1023.17 1022.44 1021.64 1020.79 1019.90 1019.01 1018.14 1017.30 1016.54 1015.85 1015.25 1014.76 1014.37
1033.30 1033.49 1033.58 1033.54 1033.40 1033.15 1032.81 1032.41 1031.98 1031.57 1031.19 1030.87 1030.61 1030.41 1030.24 1030.08 1029.90 1029.69 1029.42 1029.10 1028.74 1028.33 1027.90 1027.44 1026.98 1026.51 1026.01 1025.49 1024.93 1024.31 1023.64 1022.90 1022.11 1021.26 1020.37 1019.46 1018.54 1017.64 1016.77 1015.96 1015.22 1014.58 1014.05
1033.89 1034.07 1034.13 1034.07 1033.92 1033.68 1033.37 1033.03 1032.68 1032.33 1032.01 1031.71 1031.46 1031.23 1031.01 1030.79 1030.56 1030.30 1030.00 1029.67 1029.31 1028.91 1028.47 1028.01 1027.52 1027.01 1026.47 1025.91 1025.31 1024.67 1024.00 1023.29 1022.53 1021.73 1020.88 1019.99 1019.07 1018.13 1017.18 1016.26 1015.40 1014.60 1013.90
1034.34 1034.50 1034.54 1034.46 1034.30 1034.07 1033.82 1033.54 1033.26 1032.99 1032.73 1032.47 1032.21 1031.95 1031.69 1031.42 1031.13 1030.82 1030.50 1030.15 1029.78 1029.37 1028.93 1028.45 1027.93 1027.38 1026.78 1026.17 1025.54 1024.89 1024.23 1023.56 1022.86 1022.13 1021.35 1020.51 1019.61 1018.66 1017.67 1016.66 1015.68 1014.74 1013.88
1034.66 1034.79 1034.80 1034.70 1034.54 1034.35 1034.14 1033.94 1033.74 1033.55 1033.35 1033.13 1032.88 1032.60 1032.30 1031.98 1031.64 1031.29 1030.94 1030.57 1030.19 1029.77 1029.31 1028.80 1028.24 1027.63 1026.98 1026.31 1025.63 1024.97 1024.32 1023.69 1023.05 1022.39 1021.69 1020.92 1020.06 1019.13 1018.11 1017.05 1015.97 1014.91 1013.91
1034.83 1034.95 1034.93 1034.82 1034.67 1034.51 1034.36 1034.23 1034.12 1034.01 1033.86 1033.69 1033.45 1033.17 1032.84 1032.48 1032.10 1031.72 1031.34 1030.96 1030.56 1030.13 1029.65 1029.10 1028.48 1027.81 1027.10 1026.36 1025.64 1024.95 1024.29 1023.68 1023.09 1022.49 1021.85 1021.14 1020.34 1019.43 1018.41 1017.32 1016.18 1015.04 1013.94
1034.90 1034.99 1034.96 1034.85 1034.71 1034.58 1034.49 1034.44 1034.40 1034.36 1034.28 1034.14 1033.93 1033.65 1033.30 1032.91 1032.51 1032.10 1031.71 1031.31 1030.90 1030.45 1029.94 1029.36 1028.69 1027.95 1027.17 1026.37 1025.59 1024.85 1024.18 1023.56 1022.98 1022.42 1021.82 1021.15 1020.38 1019.50 1018.50 1017.40 1016.24 1015.06 1013.91
1034.90 1034.97 1034.92 1034.81 1034.69 1034.60 1034.56 1034.57 1034.60 1034.62 1034.60 1034.49 1034.30 1034.02 1033.66 1033.26 1032.84 1032.42 1032.01 1031.60 1031.18 1030.72 1030.19 1029.57 1028.86 1028.07 1027.23 1026.37 1025.53 1024.74 1024.02 1023.37 1022.77 1022.20 1021.60 1020.95 1020.20 1019.33 1018.35 1017.27 1016.12 1014.95 1013.79
1034.84 1034.90 1034.84 1034.74 1034.64 1034.58 1034.59 1034.64 1034.72 1034.79 1034.80 1034.72 1034.54 1034.26 1033.90 1033.49 1033.06 1032.64 1032.22 1031.81 1031.38 1030.91 1030.37 1029.73 1028.99 1028.17 1027.28 1026.37 1025.47 1024.62 1023.85 1023.14 1022.50 1021.89 1021.26 1020.59 1019.83 1018.97 1018.00 1016.95 1015.84 1014.70 1013.58
1034.74 1034.79 1034.74 1034.65 1034.57 1034.54 1034.57 1034.66 1034.77 1034.86 1034.88 1034.82 1034.64 1034.37 1034.01 1033.60 1033.16 1032.73 1032.32 1031.91 1031.48 1031.01 1030.47 1029.82 1029.07 1028.23 1027.32 1026.37 1025.43 1024.53 1023.70 1022.93 1022.22 1021.54 1020.86 1020.14 1019.35 1018.48 1017.52 1016.50 1015.43 1014.35 1013.29
1034.58 1034.63 1034.59 1034.51 1034.46 1034.45 1034.50 1034.61 1034.74 1034.83 1034.86 1034.80 1034.63 1034.35 1033.99 1033.58 1033.15 1032.73 1032.31 1031.90 1031.48 1031.02 1030.48 1029.84 1029.09 1028.25 1027.33 1026.37 1025.41 1024.47 1023.58 1022.75 1021.97 1021.21 1020.45 1019.66 1018.82 1017.93 1016.97 1015.97 1014.96 1013.94 1012.96
1034.32 1034.38 1034.36 1034.31 1034.28 1034.30 1034.37 1034.49 1034.62 1034.73 1034.76 1034.69 1034.52 1034.25 1033.90 1033.49 1033.07 1032.65 1032.24 1031.83 1031.41 1030.95 1030.42 1029.78 1029.05 1028.22 1027.31 1026.35 1025.38 1024.42 1023.49 1022.61 1021.75 1020.91 1020.07 1019.20 1018.31 1017.37 1016.41 1015.43 1014.46 1013.52 1012.62
1033.94 1034.02 1034.03 1034.01 1034.02 1034.07 1034.17 1034.31 1034.45 1034.56 1034.60 1034.54 1034.38 1034.12 1033.78 1033.39 1032.98 1032.56 1032.15 1031.75 1031.32 1030.85 1030.31 1029.68 1028.96 1028.14 1027.24 1026.29 1025.32 1024.34 1023.39 1022.45 1021.53 1020.62 1019.70 1018.76 1017.80 1016.83 1015.86 1014.90 1013.97 1013.10 1012.28
1033.41 1033.52 1033.57 1033.61 1033.66 1033.76 1033.90 1034.08 1034.25 1034.38 1034.44 1034.41 1034.27 1034.03 1033.71 1033.34 1032.94 1032.53 1032.12 1031.70 1031.25 1030.76 1030.20 1029.56 1028.82 1028.00 1027.10 1026.16 1025.18 1024.20 1023.22 1022.25 1021.27 1020.29 1019.30 1018.30 1017.29 1016.28 1015.30 1014.36 1013.49 1012.68 1011.94
1032.75 1032.90 1033.01 1033.11 1033.23 1033.40 1033.61 1033.84 1034.06 1034.24 1034.34 1034.34 1034.24 1034.03 1033.74 1033.39 1033.01 1032.59 1032.17 1031.72 1031.23 1030.70 1030.10 1029.41 1028.64 1027.80 1026.89 1025.93 1024.94 1023.95 1022.94 1021.93 1020.91 1019.88 1018.84 1017.78 1016.73 1015.70 1014.72 1013.80 1012.97 1012.23 1011.58
1032.00 1032.20 1032.38 1032.57 1032.79 1033.05 1033.35 1033.66 1033.95 1034.18 1034.34 1034.39 1034.33 1034.16 1033.91 1033.58 1033.19 1032.76 1032.30 1031.81 1031.26 1030.66 1029.99 1029.24 1028.41 1027.52 1026.57 1025.58 1024.57 1023.55 1022.51 1021.47 1020.41 1019.34 1018.25 1017.16 1016.08 1015.04 1014.07 1013.19 1012.41 1011.75 1011.18
1031.24 1031.51 1031.78 1032.07 1032.40 1032.77 1033.17 1033.57 1033.95 1034.25 1034.47 1034.57 1034.55 1034.41 1034.17 1033.85 1033.45 1033.00 1032.49 1031.93 1031.31 1030.63 1029.86 1029.02 1028.12 1027.15 1026.14 1025.11 1024.06 1023.00 1021.93 1020.86 1019.77 1018.66 1017.55 1016.44 1015.35 1014.31 1013.36 1012.52 1011.80 1011.21 1010.74
1030.56 1030.90 1031.27 1031.68 1032.13 1032.62 1033.13 1033.63 1034.08 1034.45 1034.71 1034.84 1034.85 1034.73 1034.49 1034.15 1033.73 1033.23 1032.66 1032.03 1031.32 1030.54 1029.68 1028.74 1027.75 1026.71 1025.63 1024.54 1023.45 1022.35 1021.26 1020.15 1019.04 1017.92 1016.79 1015.66 1014.58 1013.55 1012.62 1011.82 1011.16 1010.65 1010.27
1030.01 1030.45 1030.93 1031.46 1032.03 1032.64 1033.25 1033.83 1034.34 1034.75 1035.03 1035.17 1035.17 1035.03 1034.77 1034.39 1033.92 1033.37 1032.73 1032.02 1031.23 1030.36 1029.41 1028.39 1027.32 1026.21 1025.08 1023.94 1022.81 1021.68 1020.57 1019.45 1018.32 1017.19 1016.06 1014.94 1013.86 1012.85 1011.95 1011.18 1010.57 1010.12 1009.81
1029.64 1030.18 1030.78 1031.42 1032.10 1032.81 1033.49 1034.13 1034.66 1035.08 1035.35 1035.46 1035.42 1035.24 1034.92 1034.50 1033.97 1033.35 1032.65 1031.87 1031.01 1030.07 1029.06 1027.98 1026.86 1025.70 1024.54 1023.38 1022.23 1021.10 1019.98 1018.86 1017.75 1016.62 1015.50 1014.39 1013.33 1012.34 1011.46 1010.71 1010.13 1009.72 1009.46
1029.46 1030.10 1030.79 1031.54 1032.31 1033.08 1033.81 1034.46 1034.98 1035.37 1035.59 1035.64 1035.53 1035.28 1034.90 1034.41 1033.82 1033.15 1032.40 1031.58 1030.68 1029.70 1028.66 1027.57 1026.43 1025.27 1024.11 1022.96 1021.83 1020.71 1019.62 1018.53 1017.44 1016.34 1015.24 1014.16 1013.11 1012.13 1011.26 1010.53 1009.96 1009.55 1009.30
1029.42 1030.14 1030.92 1031.74 1032.57 1033.37 1034.10 1034.73 1035.21 1035.53 1035.67 1035.64 1035.45 1035.12 1034.67 1034.12 1033.49 1032.79 1032.02 1031.18 1030.28 1029.31 1028.29 1027.21 1026.11 1024.98 1023.86 1022.76 1021.68 1020.61 1019.57 1018.53 1017.48 1016.43 1015.37 1014.32 1013.30 1012.34 1011.47 1010.73 1010.14 1009.71 1009.43
1029.46 1030.25 1031.09 1031.95 1032.80 1033.59 1034.29 1034.86 1035.27 1035.50 1035.54 1035.42 1035.15 1034.75 1034.26 1033.67 1033.03 1032.32 1031.57 1030.76 1029.90 1028.98 1028.01 1027.00 1025.96 1024.91 1023.86 1022.84 1021.83 1020.84 1019.87 1018.90 1017.93 1016.94 1015.93 1014.92 1013.93 1012.98 1012.11 1011.35 1010.72 1010.24 1009.90
1029.51 1030.35 1031.22 1032.09 1032.92 1033.67 1034.31 1034.80 1035.11 1035.24 1035.20 1035.01 1034.68 1034.24 1033.73 1033.15 1032.53 1031.86 1031.16 1030.42 1029.63 1028.79 1027.90 1026.98 1026.04 1025.08 1024.13 1023.19 1022.28 1021.39 1020.50 1019.62 1018.72 1017.81 1016.87 1015.91 1014.95 1014.02 1013.14 1012.35 1011.67 1011.12 1010.71
Thickness
5605 5610 5613 5616 5619 5621 5626 5629 5632 5634 5635 5636 5637 5639 5640 5642 5643 5645 5646 5647 5647 5647 5646 5645 5644 5644 5642 5641 5639 5637 5634 5632 5631 5627 5624 5624 5625 5625 5625 5625 5624 5623 5622
5594 5599 5603 5606 5608 5611 5615 5619 5623 5624 5626 5627 5629 5630 5632 5634 5635 5636 5637 5638 5638 5638 5638 5637 5637 5636 5635 5633 5631 5629 5625 5624 5623 5620 5616 5614 5614 5616 5617 5616 5615 5615 5614
5583 5587 5592 5595 5598 5601 5605 5609 5612 5615 5617 5618 5619 5620 5621 5623 5625 5626 5628 5629 5630 5630 5630 5630 5629 5628 5627 5625 5624 5623 5620 5617 5615 5614 5612 5607 5607 5606 5607 5607 5606 5606 5605
5573 5576 5580 5583 5587 5591 5594 5598 5600 5604 5607 5609 5609 5610 5612 5613 5616 5617 5618 5619 5620 5621 5621 5620 5620 5620 5618 5618 5617 5615 5613 5611 5608 5606 5606 5605 5602 5598 5597 5598 5597 5597 5597
5561 5564 5568 5572 5577 5581 5583 5586 5589 5592 5595 5598 5599 5601 5602 5604 5605 5607 5607 5608 5610 5611 5611 5611 5611 5611 5610 5610 5609 5607 5606 5604 5602 5599 5597 5596 5593 5592 5589 5589 5588 5587 5588
5551 5554 5558 5561 5565 5569 5572 5575 5578 5581 5583 5586 5588 5591 5593 5594 5596 5597 5598 5599 5600 5601 5602 5602 5602 5602 5602 5601 5601 5600 5599 5597 5595 5593 5591 5590 5587 5585 5583 5580 5579 5578 5578
5540 5543 5548 5551 5554 5557 5560 5563 5566 5569 5572 5574 5577 5580 5583 5585 5587 5588 5589 5590 5591 5592 5593 5593 5593 5594 5594 5593 5592 5591 5590 5590 5588 5586 5584 5583 5582 5580 5577 5574 5570 5569 5569
5530 5534 5537 5540 5543 5546 5549 5552 5555 5558 5561 5563 5566 5570 5573 5575 5578 5580 5581 5582 5584 5586 5586 5585 5585 5585 5584 5583 5583 5582 5581 5581 5580 5578 5576 5574 5573 5572 5570 5568 5563 5560 5559
5521 5524 5526 5529 5532 5535 5537 5540 5543 5546 5550 5553 5556 5559 5563 5565 5569 5570 5573 5575 5576 5577 5578 5577 5576 5576 5575 5574 5573 5573 5572 5571 5570 5569 5567 5565 5564 5563 5561 5560 5558 5554 5550
5511 5513 5515 5517 5520 5523 5525 5528 5531 5535 5539 5543 5546 5551 5554 5557 5560 5561 5564 5567 5568 5568 5568 5568 5567 5567 5565 5565 5564 5563 5563 5561 5560 5559 5557 5555 5554 5553 5551 5549 5547 5546 5543
5500 5501 5503 5505 5508 5511 5513 5516 5520 5524 5528 5533 5538 5542 5546 5548 5550 5553 5557 5559 5560 5560 5560 5560 5559 5558 5556 5555 5554 5554 5553 5552 5551 5549 5548 5546 5544 5542 5540 5538 5536 5534 5532
5489 5490 5491 5494 5497 5499 5502 5506 5509 5514 5518 5523 5528 5533 5537 5539 5541 5545 5548 5550 5551 5551 5551 5550 5550 5549 5547 5546 5545 5545 5544 5543 5541 5539 5537 5535 5533 5531 5529 5527 5525 5523 5520
5480 5480 5480 5482 5485 5488 5492 5495 5499 5504 5508 5513 5518 5523 5527 5530 5532 5535 5538 5540 5541 5541 5541 5540 5540 5540 5538 5537 5536 5535 5534 5533 5532 5530 5528 5526 5523 5520 5518 5516 5514 5512 5510
5470 5470 5470 5471 5475 5479 5483 5486 5490 5494 5499 5504 5508 5511 5516 5519 5521 5524 5527 5530 5531 5530 5530 5530 5530 5530 5528 5527 5526 5525 5523 5522 5521 5520 5518 5516 5514 5511 5508 5505 5502 5500 5497
5461 5461 5461 5462 5465 5469 5473 5477 5481 5485 5490 5494 5498 5501 5505 5507 5510 5513 5516 5518 5519 5520 5520 5520 5519 5519 5518 5517 5516 5514 5513 5511 5510 5508 5506 5505 5503 5501 5498 5495 5492 5489 5486
5452 5452 5453 5453 5455 5458 5462 5467 5471 5475 5480 5483 5487 5490 5493 5497 5500 5502 5504 5506 5507 5509 5510 5509 5508 5508 5508 5507 5505 5503 5501 5500 5499 5496 5495 5494 5491 5489 5487 5485 5483 5480 5476
5442 5443 5443 5443 5445 5447 5451 5455 5460 5465 5470 5473 5477 5480 5484 5487 5489 5491 5492 5494 5495 5496 5497 5497 5497 5497 5497 5496 5494 5492 5490 5489 5487 5486 5484 5483 5481 5478 5475 5473 5471 5468 5465
5434 5434 5434 5435 5437 5439 5443 5446 5451 5456 5460 5463 5467 5470 5473 5476 5478 5480 5481 5482 5484 5484 5485 5485 5486 5486 5485 5485 5484 5481 5479 5478 5477 5476 5475 5473 5470 5468 5466 5463 5459 5456 5454
5427 5426 5426 5427 5428 5431 5434 5438 5442 5446 5449 5452 5456 5459 5462 5465 5466 5469 5470 5471 5472 5472 5473 5474 5474 5473 5472 5472 5471 5470 5468 5467 5465 5464 5463 5461 5460 5459 5457 5453 5450 5446 5443
5420 5419 5419 5419 5421 5424 5427 5430 5433 5436 5439 5442 5445 5448 5451 5453 5455 5457 5458 5459 5460 5460 5460 5461 5461 5461 5460 5460 5459 5459 5457 5455 5453 5452 5451 5450 5449 5448 5446 5443 5440 5436 5434
5413 5413 5412 5412 5414 5416 5419 5421 5424 5427 5430 5433 5435 5438 5440 5442 5443 5444 5445 5447 5447 5447 5448 5447 5447 5447 5447 5447 5447 5447 5446 5445 5442 5440 5439 5438 5438 5437 5434 5432 5430 5428 5425
5405 5405 5405 5405 5406 5408 5409 5412 5414 5417 5420 5423 5425 5427 5428 5430 5431 5432 5433 5434 5435 5435 5434 5434 5433 5433 5433 5434 5434 5435 5435 5434 5431 5430 5428 5427 5426 5425 5422 5420 5418 5416 5413
5396 5396 5396 5396 5397 5398 5400 5401 5403 5406 5410 5412 5413 5414 5415 5416 5418 5419 5420 5421 5422 5422 5421 5421 5421 5420 5420 5420 5422 5422 5422 5421 5420 5419 5417 5415 5414 5412 5409 5407 5406 5402 5398
5387 5387 5387 5387 5388 5389 5390 5392 5393 5396 5398 5399 5401 5403 5403 5404 5406 5407 5408 5408 5409 5409 5409 5409 5409 5409 5408 5408 5408 5408 5408 5408 5407 5405 5403 5401 5399 5396 5395 5392 5390 5387 5385
5380 5379 5378 5378 5379 5380 5381 5382 5384 5386 5387 5388 5389 5390 5392 5393 5394 5394 5395 5396 5397 5398 5398 5398 5397 5397 5396 5396 5397 5397 5396 5395 5394 5393 5390 5387 5384 5381 5379 5377 5375 5373 5370
5372 5370 5370 5370 5371 5371 5372 5373 5374 5376 5377 5377 5378 5379 5380 5381 5383 5383 5384 5384 5386 5387 5388 5388 5387 5386 5386 5386 5386 5385 5385 5384 5383 5380 5376 5373 5370 5367 5366 5365 5362 5360 5358